Vertical_Velocity
-2 -0 0 1 -2 15 17 -3 -5 4 1 -0 -4 -3 3 -1 -2 1 0 -2 -2 -1 -1 -0 0 -0 1 0 -0 -1 -1 -1 -2 -1 -2 -0 -1 -1 -1 -0 -2 -1 -1
-5 -3 -3 -8 -0 -1 4 16 14 7 2 2 -1 -3 -0 2 -2 -3 -3 -1 -1 -1 0 -2 -1 1 1 1 -1 -1 1 0 2 3 -0 2 -0 -1 -0 -1 2 -1 0
1 -2 0 -0 -11 15 3 16 12 4 6 -2 2 -0 -2 -3 -1 1 0 -0 -1 0 1 3 -2 -2 -1 -4 1 0 -1 0 1 -2 -1 0 2 -2 -1 -1 -1 -1 -0
-2 -4 -1 -3 -1 -3 -3 161 20 70 -31 18 -33 -13 13 5 23 18 12 6 9 -1 8 6 -3 8 5 1 -1 -1 0 -1 -1 -2 -2 -3 2 2 1 4 -2 -1 -0
-7 0 4 -0 -10 -0 28 22 19 23 -9 -16 31 46 180 -15 21 5 14 17 8 3 3 9 8 6 -1 -2 4 3 7 0 3 -3 -1 -2 4 -4 -4 1 -1 0 2
1 3 -2 -7 -7 -1 -6 28 37 98 -7 -1 10 73 -6 1 9 14 13 20 1 -3 5 8 6 0 1 14 8 2 4 5 -2 7 2 11 -1 2 -4 3 -3 -1 -2
-2 2 -0 -3 1 4 19 5 13 -5 -7 10 13 7 -10 10 17 19 33 25 19 31 8 17 -4 21 -3 -5 6 1 -7 5 1 -1 7 2 1 6 0 2 -0 -0 4
-6 1 -0 -3 0 6 3 7 1 -1 -3 -4 2 -1 3 -2 5 -4 13 1 3 5 -3 2 3 3 -1 2 2 6 -3 1 -6 -11 1 5 15 -2 -2 1 -1 -2 -0
24 -2 -2 -3 2 4 -2 -1 0 -1 0 -3 -1 1 2 8 3 -3 -3 -6 -4 -0 2 0 -6 1 -1 -1 -2 1 -1 -1 -3 -4 -2 -4 5 8 10 21 4 -1 0
-10 4 -1 -4 -1 0 -5 2 0 -0 2 1 0 3 -2 1 1 -3 -2 -1 -0 -2 -1 -1 -0 -0 -2 -2 -0 -3 -2 1 0 -1 -2 -1 1 2 4 9 9 5 5
10 9 4 1 4 -2 -2 -0 -4 0 3 4 3 4 -1 -6 -2 -0 -0 2 -1 2 2 3 -2 0 0 -3 -3 -1 -1 -1 -1 -2 -0 3 -4 1 3 1 11 8 5
6 12 5 4 0 -2 1 -1 2 3 3 -5 2 1 -2 1 -2 -2 -1 -4 -3 1 0 -1 -4 -2 -1 -3 -3 -0 -2 -0 -4 3 -4 -5 -1 -1 -2 -0 3 0 -3
3 4 -4 -2 -2 3 0 -2 -0 -2 -5 -2 4 -1 -1 -1 3 -3 -3 -4 -5 -1 0 -1 -3 -1 1 -0 -4 -6 -2 -0 3 -1 -1 1 2 2 0 -1 1 -1 4
-11 -7 -5 2 -0 -1 1 7 2 3 2 -1 -4 -6 -4 -0 -2 -6 -3 0 -0 -0 -3 -4 0 -2 -4 -5 -6 -1 -2 -1 0 3 -2 -2 -3 1 2 0 -1 -1 0
-5 -7 -3 -5 0 -1 -4 -3 -3 -6 -3 -4 -1 1 -3 -1 1 3 -2 -2 -5 -4 -4 -1 -3 -4 -2 -3 -3 1 -2 0 -3 4 5 1 1 2 1 -0 3 -1 1
-9 -6 -2 -4 -7 -1 -3 -7 -9 -4 3 0 2 4 -0 6 -0 3 1 3 2 2 4 -0 -1 4 -3 -3 -0 -1 1 -0 -4 -3 -0 -1 1 1 -1 0 4 5 -2
0 -1 -2 -1 1 -3 8 -2 -2 4 -1 -1 -0 -3 -3 -0 -3 -2 -1 -3 -0 -3 -1 2 -1 -5 -3 -0 3 -0 -1 -3 -3 -1 1 -1 -0 1 1 0 -2 -0 -1
-1 -1 -1 1 5 2 -1 -4 -1 0 -0 0 0 -1 -0 -1 -3 -4 0 -2 -3 -2 -2 -3 -1 -2 -1 -2 2 -3 -2 -1 -1 -1 -2 -1 -2 -2 -1 1 0 -1 1
-4 -5 -7 -2 2 2 1 3 3 3 -0 0 2 -0 -1 -2 -1 -1 -1 -4 -2 -0 -2 -1 -1 -0 -1 -1 -1 -2 1 0 -1 -1 -3 -1 -0 -1 -2 2 1 -2 -3
5 1 -2 4 0 -2 -1 0 -0 1 -3 -5 2 1 1 -2 0 1 -2 -1 -2 -4 -1 -1 -0 -3 -2 -1 -2 1 -2 -3 1 -2 -2 -3 -3 -0 -2 -2 -2 -0 0
-5 -2 2 2 3 4 3 2 -2 -4 -0 -1 -2 -2 -2 -0 2 -2 -2 -1 -4 -0 1 -4 -4 -1 -1 1 1 -0 -2 -1 -2 -3 -4 -5 -4 -3 -1 -2 0 1 -1
-3 -2 -4 -1 -3 -1 0 1 -1 2 -1 -0 -0 -1 -1 -1 -1 -1 -5 -4 1 -1 -2 -0 -2 -2 0 1 -1 -3 -1 -2 -2 -4 -3 -2 -2 -2 -1 -1 -1 -1 -2
-1 -1 -0 -0 -0 -2 -2 -3 -3 -2 0 -1 -0 -1 -1 -3 -3 -4 -0 -1 -1 0 -0 -1 -1 -3 0 -3 -4 -2 -4 -5 -1 -5 -1 -3 -4 -3 -1 -1 1 -1 1
7 2 3 2 5 7 5 2 -2 0 1 -1 0 0 0 0 2 1 -0 1 -0 -2 -1 -2 -2 -1 -2 -3 2 -2 -2 -2 -0 2 -3 -3 -2 -2 -2 -2 -0 -2 0
-0 1 1 3 3 3 3 2 2 -1 -1 -1 0 2 2 3 1 -0 1 0 -2 2 -1 -3 -0 -1 -3 -2 -2 0 -0 -2 -1 3 -5 -1 -2 -1 -1 -1 0 1 0
-2 -2 -1 0 -0 -0 0 1 0 1 1 0 0 1 0 1 0 -0 1 0 -2 0 -2 -2 1 -2 -1 -2 -3 -2 -1 -2 -1 4 -5 1 -2 -3 -0 1 1 -0 -2
Height
5703 5713 5721 5731 5740 5746 5753 5763 5774 5780 5783 5791 5798 5804 5812 5816 5818 5821 5825 5828 5830 5833 5836 5837 5839 5841 5842 5843 5845 5846 5847 5846 5847 5848 5848 5848 5848 5846 5846 5845 5844 5843 5841
5698 5709 5720 5729 5735 5743 5752 5760 5767 5773 5779 5787 5795 5800 5803 5809 5811 5815 5819 5821 5824 5827 5830 5832 5834 5836 5838 5838 5839 5839 5839 5841 5841 5842 5841 5841 5841 5840 5839 5839 5837 5836 5835
5695 5706 5716 5725 5729 5740 5749 5755 5763 5768 5775 5783 5789 5791 5797 5801 5806 5809 5812 5815 5816 5818 5822 5826 5828 5829 5830 5831 5833 5833 5833 5833 5833 5832 5833 5832 5833 5833 5832 5831 5830 5828 5827
5691 5702 5712 5721 5730 5741 5743 5737 5758 5765 5772 5774 5788 5789 5790 5796 5800 5801 5805 5807 5809 5812 5817 5820 5821 5823 5824 5825 5825 5825 5826 5826 5826 5825 5823 5823 5824 5823 5823 5823 5821 5820 5818
5687 5698 5707 5715 5723 5733 5739 5742 5751 5757 5764 5774 5768 5782 5758 5784 5788 5794 5801 5802 5806 5808 5812 5812 5814 5815 5816 5817 5818 5818 5819 5819 5818 5817 5815 5814 5814 5813 5813 5814 5813 5812 5810
5685 5692 5701 5710 5720 5726 5727 5723 5735 5741 5756 5763 5755 5756 5769 5776 5780 5786 5792 5793 5798 5800 5801 5804 5806 5808 5809 5810 5810 5810 5809 5809 5808 5808 5808 5807 5807 5806 5805 5805 5804 5803 5801
5678 5686 5697 5707 5718 5726 5725 5728 5736 5742 5748 5754 5755 5758 5763 5769 5775 5777 5774 5784 5788 5792 5795 5797 5799 5798 5801 5800 5799 5801 5802 5801 5800 5801 5799 5798 5798 5797 5796 5797 5796 5793 5792
5677 5684 5692 5703 5712 5718 5722 5726 5731 5737 5742 5748 5751 5758 5761 5766 5768 5771 5774 5778 5781 5785 5789 5791 5791 5794 5794 5793 5794 5795 5795 5794 5794 5795 5794 5792 5788 5787 5787 5787 5785 5783 5781
5674 5681 5690 5701 5707 5713 5716 5720 5725 5730 5736 5742 5747 5752 5755 5757 5759 5766 5769 5774 5776 5779 5781 5784 5785 5786 5786 5785 5785 5786 5786 5785 5787 5786 5785 5785 5781 5780 5779 5777 5775 5773 5772
5668 5678 5686 5694 5701 5707 5712 5716 5721 5726 5729 5735 5740 5746 5750 5754 5757 5760 5765 5768 5771 5773 5774 5775 5775 5776 5776 5775 5775 5775 5776 5776 5775 5774 5774 5773 5771 5770 5769 5767 5764 5762 5759
5667 5674 5683 5689 5694 5701 5706 5712 5717 5721 5724 5729 5733 5737 5742 5747 5750 5753 5756 5760 5763 5765 5767 5767 5768 5768 5768 5767 5766 5765 5763 5763 5764 5764 5763 5760 5760 5759 5757 5756 5755 5752 5749
5665 5672 5679 5686 5692 5697 5702 5706 5711 5715 5717 5722 5726 5731 5734 5738 5742 5746 5749 5752 5754 5756 5757 5757 5757 5758 5757 5756 5754 5754 5754 5752 5752 5751 5751 5750 5749 5749 5747 5747 5746 5743 5741
5661 5668 5675 5682 5687 5692 5696 5701 5705 5710 5714 5718 5721 5724 5728 5731 5734 5737 5740 5743 5745 5746 5747 5747 5748 5749 5748 5748 5746 5744 5743 5742 5741 5742 5741 5739 5739 5738 5736 5734 5733 5729 5728
5659 5665 5670 5676 5681 5685 5690 5695 5700 5704 5708 5711 5715 5719 5722 5725 5728 5731 5733 5735 5736 5737 5738 5738 5738 5738 5738 5736 5736 5735 5734 5733 5731 5730 5729 5729 5727 5726 5725 5723 5720 5718 5717
5656 5661 5665 5670 5676 5679 5683 5689 5693 5697 5701 5705 5708 5710 5713 5716 5719 5721 5723 5725 5726 5727 5729 5729 5728 5727 5725 5724 5724 5724 5724 5724 5722 5720 5718 5717 5715 5714 5713 5712 5707 5706 5705
5648 5652 5657 5663 5669 5673 5676 5681 5685 5689 5693 5696 5699 5702 5703 5706 5709 5710 5711 5711 5713 5714 5716 5716 5716 5716 5716 5715 5715 5716 5715 5714 5713 5712 5710 5707 5705 5702 5701 5699 5697 5695 5692
5643 5646 5648 5651 5656 5660 5666 5672 5677 5682 5686 5689 5692 5695 5697 5699 5702 5703 5704 5705 5706 5707 5707 5708 5709 5709 5708 5707 5707 5708 5708 5707 5705 5702 5700 5696 5693 5690 5688 5685 5683 5681 5678
5636 5639 5642 5646 5650 5654 5658 5663 5666 5670 5674 5679 5683 5686 5689 5691 5693 5694 5696 5697 5698 5699 5700 5701 5701 5701 5701 5699 5700 5700 5699 5696 5694 5691 5687 5683 5680 5677 5673 5671 5669 5667 5664
5629 5633 5636 5639 5643 5647 5652 5656 5659 5663 5667 5671 5674 5677 5679 5682 5684 5685 5687 5689 5689 5691 5692 5693 5693 5692 5691 5690 5690 5689 5688 5685 5682 5678 5674 5670 5666 5662 5659 5657 5656 5653 5651
5625 5628 5631 5634 5637 5641 5645 5650 5653 5656 5659 5663 5665 5668 5670 5673 5675 5677 5678 5679 5681 5683 5683 5683 5683 5682 5682 5681 5680 5679 5677 5674 5670 5666 5661 5657 5653 5649 5646 5644 5643 5641 5639
5625 5627 5629 5630 5632 5635 5639 5642 5645 5648 5652 5655 5657 5659 5661 5664 5665 5667 5669 5671 5672 5673 5674 5674 5673 5673 5672 5671 5670 5667 5664 5661 5657 5653 5649 5646 5642 5638 5635 5632 5631 5629 5627
5622 5624 5626 5628 5629 5631 5633 5636 5639 5642 5644 5646 5649 5651 5653 5655 5657 5659 5661 5662 5663 5663 5663 5663 5662 5662 5661 5659 5657 5654 5651 5649 5646 5642 5639 5635 5632 5628 5624 5621 5619 5618 5616
5618 5619 5621 5623 5625 5626 5628 5630 5633 5635 5637 5639 5640 5642 5644 5646 5648 5650 5652 5652 5652 5652 5652 5652 5651 5651 5650 5647 5644 5642 5640 5637 5634 5631 5628 5625 5621 5617 5614 5611 5609 5608 5607
5612 5614 5615 5616 5618 5620 5621 5623 5624 5626 5627 5629 5631 5633 5635 5637 5639 5640 5641 5641 5641 5641 5641 5641 5640 5639 5636 5634 5632 5630 5629 5627 5625 5621 5617 5614 5610 5607 5604 5600 5599 5598 5597
5606 5607 5608 5609 5610 5611 5612 5614 5615 5616 5618 5620 5621 5623 5625 5626 5627 5628 5629 5629 5629 5630 5629 5628 5627 5626 5623 5622 5621 5619 5617 5616 5614 5611 5606 5603 5600 5597 5594 5591 5589 5587 5586
5596 5598 5599 5600 5601 5602 5602 5603 5605 5606 5607 5608 5610 5611 5613 5615 5616 5617 5618 5618 5618 5618 5617 5616 5615 5613 5612 5610 5609 5608 5606 5604 5603 5600 5596 5593 5590 5586 5583 5581 5579 5578 5577